Satellite: SO-50
Catalog number: 27607
Epoch time:      05138.66667904
Element set:     720
Inclination:      064.5597 deg
RA of node:       230.5658 deg
Eccentricity:    0.0083824
Arg of perigee:   244.8152 deg
Mean anomaly:     114.4237 deg
Mean motion:   14.70961236 rev/day
Decay rate:       7.92e-06 rev/day^2
Epoch rev:           12939
Checksum:              326

Satellite: AO-51
Catalog number: 28375
Epoch time:      05138.67575154
Element set:    0254
Inclination:      098.2130 deg
RA of node:       202.4001 deg
Eccentricity:    0.0083624
Arg of perigee:   320.8362 deg
Mean anomaly:     038.6788 deg
Mean motion:   14.40456305 rev/day
Decay rate:       1.14e-06 rev/day^2
Epoch rev:           04637
Checksum:              286

/EX
SB KEPS @ AMSAT  $ORB05139.W
Orbital Elements  05139.WEATHER

HR AMSAT ORBITAL ELEMENTS FOR WEATHER SATELLITES
FROM WA5QGD FORT WORTH,TX May 19, 2005
SEND SUBSCRIBE/UNSUBSCRIBE TO majordomo@amsat.org ONLY
BID: ORB05139.W
TO ALL RADIO AMATEURS BT

Satellite: NOAA-10
Catalog number: 16969
Epoch time:      05139.44496911
Element set:     735
Inclination:      098.7640 deg
RA of node:       145.1401 deg
Eccentricity:    0.0011964
Arg of perigee:   212.7220 deg
Mean anomaly:     147.3226 deg
Mean motion:   14.27255308 rev/day
Decay rate:       1.14e-06 rev/day^2
Epoch rev:           97099
Checksum:              302

Satellite: NOAA-11
Catalog number: 19531
Epoch time:      05139.43957720
Element set:     588
Inclination:      098.8438 deg
RA of node:       226.7319 deg
Eccentricity:    0.0011943
Arg of perigee:   034.8464 deg
Mean anomaly:     325.3510 deg
Mean motion:   14.14756472 rev/day
Decay rate:       2.15e-06 rev/day^2
Epoch rev:           85886
Checksum:              327

Satellite: NOAA-12
Catalog number: 21263
Epoch time:      05139.40003516
Element set:      79
Inclination:      098.7000 deg
RA of node:       130.0276 deg
Eccentricity:    0.0013374
Arg of perigee:   149.1327 deg
Mean anomaly:     211.0631 deg
Mean motion:   14.25463336 rev/day
Decay rate:        1.9e-07 rev/day^2
Epoch rev:           72814
Checksum:              252

Satellite: MET-3/5
Catalog number: 21655
Epoch time:      05138.77763858
Element set:     819
Inclination:      082.5565 deg
RA of node:       179.4396 deg
Eccentricity:    0.0012216
Arg of perigee:   311.4373 deg
Mean anomaly:     048.5732 deg
Mean motion:   13.16998882 rev/day
Decay rate:        5.1e-07 rev/day^2
Epoch rev:           66144
Checksum:              339

Satellite: MET-2/21
Catalog number: 22782
Epoch time:      05138.90981489
Element set:    0206
Inclination:      082.5468 deg
RA of node:       284.2033 deg
Eccentricity:    0.0021992
Arg of perigee:   202.1850 deg
Mean anomaly:     157.8360 deg
Mean motion:   13.83589055 rev/day
Decay rate:       1.28e-06 rev/day^2
Epoch rev:           59152
Checksum:              315

Satellite: OKEAN-4
Catalog number: 23317
Epoch time:      05138.84867611
Element set:    0629
Inclination:      082.5384 deg
RA of node:       284.7354 deg
Eccentricity:    0.0021084
Arg of perigee:   231.0078 deg
Mean anomaly:     128.9218 deg
Mean motion:   14.82147618 rev/day
Decay rate:       9.25e-06 rev/day^2
Epoch rev:           57156
Checksum:              317

Satellite: NOAA-14
Catalog number: 23455
Epoch time:      05139.40984671
Element set:     602
Inclination:      099.0906 deg
RA of node:       187.2668 deg
Eccentricity:    0.0010260
Arg of perigee:   085.7278 deg
Mean anomaly:     274.5071 deg
Mean motion:   14.13565275 rev/day
Decay rate:       2.77e-06 rev/day^2
Epoch rev:           53543
Checksum:              317

Satellite: SICH-1
Catalog number: 23657
Epoch time:      05138.84818940
Element set:    0434
Inclination:      082.5289 deg
RA of node:       065.5856 deg
Eccentricity:    0.0022909
Arg of perigee:   216.4604 deg
Mean anomaly:     143.5001 deg
Mean motion:   14.81162968 rev/day
Decay rate:       8.47e-06 rev/day^2
Epoch rev:           52361
Checksum:              314

Satellite: NOAA-15
Catalog number: 25338
Epoch time:      05139.27197309
Element set:      43
Inclination:      098.5128 deg
RA of node:       148.4877 deg
Eccentricity:    0.0011815
Arg of perigee:   084.3689 deg
Mean anomaly:     275.8858 deg
Mean motion:   14.24509281 rev/day
Decay rate:       1.08e-06 rev/day^2
Epoch rev:           36463
Checksum:              336

Satellite: RESURS
Catalog number: 25394
Epoch time:      05138.91274003
Element set:    0093
Inclination:      098.5390 deg
RA of node:       208.9551 deg
Eccentricity:    0.0000865
Arg of perigee:   196.9898 deg
Mean anomaly:     163.1251 deg
Mean motion:   14.24064800 rev/day
Decay rate:       -2.0e-08 rev/day^2
Epoch rev:           35628
Checksum:              297

Satellite: FENGYUN1
Catalog number: 25730
Epoch time:      05138.58221273
Element set:     416
Inclination:      098.6048 deg
RA of node:       141.5503 deg
Eccentricity:    0.0014360
Arg of perigee:   181.7251 deg
Mean anomaly:     178.3874 deg
Mean motion:   14.11792475 rev/day
Decay rate:      -1.46e-06 rev/day^2
Epoch rev:           31033
Checksum:              279

Satellite: OKEAN-0
Catalog number: 25860
Epoch time:      05138.82565381
Element set:    0437
Inclination:      097.7587 deg
RA of node:       166.0094 deg
Eccentricity:    0.0000809
Arg of perigee:   066.7972 deg
Mean anomaly:     293.3247 deg
Mean motion:   14.73247338 rev/day
Decay rate:       2.87e-06 rev/day^2
Epoch rev:           31368
Checksum:              333

